TimeEST,TemperatureF,Dew PointF,Humidity,Sea Level PressureIn,VisibilityMPH,Wind Direction,Wind SpeedMPH,Gust SpeedMPH,PrecipitationIn,Events,Conditions,WindDirDegrees,DateUTC
4:55 AM,30.2,28.4,93,29.54,0.2,Calm,Calm,-,N/A,,Overcast,0,2013-03-01 09:55:00
5:35 AM,28.4,26.6,93,29.54,0.8,Calm,Calm,-,N/A,,Overcast,0,2013-03-01 10:35:00
5:55 AM,28.4,26.6,93,29.54,1.5,Calm,Calm,-,N/A,,Mostly Cloudy,0,2013-03-01 10:55:00
6:15 AM,28.4,24.8,86,29.54,1.0,Calm,Calm,-,N/A,,Scattered Clouds,0,2013-03-01 11:15:00
6:35 AM,28.4,26.6,93,29.55,0.2,Calm,Calm,-,N/A,,Overcast,0,2013-03-01 11:35:00
7:16 AM,28.4,26.6,93,29.57,10.0,Calm,Calm,-,N/A,,Overcast,0,2013-03-01 12:16:00
8:15 AM,30.2,28.4,93,29.59,10.0,Calm,Calm,-,N/A,,Overcast,0,2013-03-01 13:15:00
8:35 AM,33.8,30.2,87,29.59,10.0,Calm,Calm,-,N/A,,Overcast,0,2013-03-01 13:35:00
8:55 AM,33.8,30.2,87,29.60,10.0,Calm,Calm,-,N/A,,Overcast,0,2013-03-01 13:55:00
9:15 AM,33.8,30.2,87,29.60,10.0,Calm,Calm,-,N/A,,Overcast,0,2013-03-01 14:15:00
9:35 AM,33.8,28.4,81,29.60,10.0,Calm,Calm,-,N/A,,Overcast,0,2013-03-01 14:35:00
9:55 AM,33.8,28.4,81,29.60,10.0,Calm,Calm,-,N/A,,Overcast,0,2013-03-01 14:55:00
10:35 AM,35.6,26.6,70,29.60,10.0,East,4.6,-,N/A,,Overcast,80,2013-03-01 15:35:00
10:55 AM,35.6,26.6,70,29.60,10.0,Calm,Calm,-,N/A,,Overcast,0,2013-03-01 15:55:00
11:15 AM,37.4,28.4,70,29.61,10.0,NE,4.6,-,N/A,,Overcast,50,2013-03-01 16:15:00
11:35 AM,37.4,26.6,65,29.61,7.0,NNW,5.8,-,N/A,,Overcast,330,2013-03-01 16:35:00
12:15 PM,37.4,24.8,60,29.61,10.0,NW,9.2,-,N/A,,Overcast,320,2013-03-01 17:15:00
12:35 PM,35.6,24.8,65,29.61,10.0,NW,11.5,-,N/A,,Overcast,320,2013-03-01 17:35:00
1:15 PM,35.6,24.8,65,29.61,10.0,NW,8.1,-,N/A,,Overcast,320,2013-03-01 18:15:00
1:35 PM,37.4,24.8,60,29.61,10.0,NW,6.9,-,N/A,,Overcast,320,2013-03-01 18:35:00
2:15 PM,37.4,24.8,60,29.61,10.0,NNW,6.9,-,N/A,,Overcast,330,2013-03-01 19:15:00
2:35 PM,37.4,24.8,60,29.61,10.0,NNW,10.4,-,N/A,,Overcast,330,2013-03-01 19:35:00
2:55 PM,35.6,24.8,65,29.62,10.0,NNW,9.2,-,N/A,,Overcast,330,2013-03-01 19:55:00
3:35 PM,35.6,24.8,65,29.62,10.0,NW,8.1,-,N/A,,Overcast,310,2013-03-01 20:35:00
3:55 PM,35.6,24.8,65,29.62,10.0,WNW,9.2,17.3,N/A,,Overcast,300,2013-03-01 20:55:00
4:15 PM,35.6,24.8,65,29.63,10.0,NW,9.2,-,N/A,,Overcast,320,2013-03-01 21:15:00
4:35 PM,35.6,24.8,65,29.63,10.0,NW,6.9,-,N/A,,Overcast,310,2013-03-01 21:35:00
5:15 PM,35.6,24.8,65,29.64,10.0,WNW,6.9,-,N/A,,Overcast,300,2013-03-01 22:15:00
5:55 PM,35.6,24.8,65,29.65,10.0,NW,9.2,17.3,N/A,,Overcast,310,2013-03-01 22:55:00
6:15 PM,35.6,24.8,65,29.66,10.0,NW,8.1,-,N/A,,Overcast,310,2013-03-01 23:15:00
6:35 PM,35.6,24.8,65,29.66,10.0,NW,9.2,-,N/A,,Overcast,310,2013-03-01 23:35:00
6:55 PM,33.8,24.8,70,29.66,10.0,WNW,8.1,-,N/A,,Overcast,300,2013-03-01 23:55:00
7:15 PM,33.8,24.8,70,29.65,10.0,WNW,5.8,-,N/A,,Mostly Cloudy,290,2013-03-02 00:15:00
7:35 PM,33.8,24.8,70,29.66,10.0,WNW,9.2,-,N/A,,Overcast,300,2013-03-02 00:35:00
7:55 PM,33.8,24.8,70,29.66,10.0,NW,8.1,-,N/A,,Overcast,310,2013-03-02 00:55:00
8:35 PM,33.8,24.8,70,29.66,10.0,West,4.6,-,N/A,,Mostly Cloudy,280,2013-03-02 01:35:00
9:15 PM,33.8,24.8,70,29.66,10.0,Calm,Calm,-,N/A,,Overcast,0,2013-03-02 02:15:00
9:35 PM,33.8,24.8,70,29.66,10.0,WNW,4.6,-,N/A,,Overcast,290,2013-03-02 02:35:00
9:55 PM,33.8,24.8,70,29.65,10.0,WNW,5.8,-,N/A,,Overcast,300,2013-03-02 02:55:00
10:15 PM,33.8,24.8,70,29.65,10.0,WNW,4.6,-,N/A,,Overcast,290,2013-03-02 03:15:00
10:55 PM,33.8,23.0,65,29.65,10.0,WNW,5.8,-,N/A,,Overcast,290,2013-03-02 03:55:00
11:15 PM,33.8,23.0,65,29.65,10.0,West,4.6,-,N/A,,Mostly Cloudy,280,2013-03-02 04:15:00
11:35 PM,33.8,23.0,65,29.65,10.0,West,3.5,-,N/A,,Clear,270,2013-03-02 04:35:00
11:55 PM,33.8,23.0,65,29.65,10.0,West,3.5,-,N/A,,Scattered Clouds,270,2013-03-02 04:55:00